Home > Weather > Riyadh > Past weeks

Flag for Saudi Arabia Past Weather in Riyadh, Saudi Arabia — Yesterday and Last 2 Weeks

Now
104 °F

Sunny.


Feels Like: 97 °F
Forecast: 77 / 111 °F
Wind: 5 mph from Southeast

Location: King Khaled International Airport

Current Time: Aug 27, 2016 at 6:36:00 PM

Latest Report: Aug 27, 2016 at 6:00 PM


Visibility: 10 mi

Pressure: 29.83 "Hg (27.97 "Hg at 590m altitude)

Humidity: 6%

Dew Point: 23 °F

Location of RiyadhLocation

Past Weather in Riyadh — Graph

°F

Riyadh Temperature Yesterday

Maximum temperature yesterday: 108 °F (at 4:00 PM)
Minimum temperature yesterday: 81 °F (at 5:00 AM)
Average temperature yesterday: 96 °F

High & Low Weather Summary for the Past Weeks

 TemperatureHumidityPressure
High113 °F (Aug 13, 12:00 PM)24% (Aug 22, 7:00 AM)29.92 "Hg (Aug 22, 7:00 AM)
Low81 °F (Aug 26, 5:00 AM)5% (Aug 13, 2:00 PM)29.62 "Hg (Aug 17, 5:00 PM)
Average98 °F10%29.74 "Hg
* Reported Aug 12 5:00 PM — Aug 27 5:00 PM, Riyadh, Weather by CustomWeather, © 2016

Note: Actual official high and low records may vary slightly from our data, if they occured in-between our weather recording intervals... More about our weather records

Advertising

Riyadh Weather History for the Previous 24 Hours

Scroll right to see more
 ConditionsComfort  
Time TempWeatherWind HumidityBarometerVisibility
5:00 PM
Sat, Aug 27
108 °FSunny.7 mph5%29.80 "Hg10 mi
4:00 PM108 °FSunny.6 mph5%29.80 "Hg10 mi
3:00 PM108 °FSunny.9 mph5%29.80 "Hg10 mi
2:00 PM109 °FSunny.12 mph5%29.83 "Hg10 mi
1:00 PM108 °FSunny.7 mph5%29.83 "Hg10 mi
12:00 PM108 °FSunny.14 mph5%29.86 "Hg4 mi
11:00 AM106 °FSunny.5 mph7%29.89 "Hg10 mi
10:00 AM102 °FSunny.2 mph7%29.89 "Hg10 mi
9:00 AM99 °FSunny.2 mph8%29.92 "Hg10 mi
8:00 AM90 °FSunny.5 mph11%29.89 "Hg10 mi
7:00 AM84 °FSunny.5 mph12%29.89 "Hg10 mi
6:00 AM81 °FSunny.No wind13%29.89 "Hg10 mi
5:00 AM81 °FClear.6 mph13%29.86 "Hg10 mi
4:00 AM84 °FClear.5 mph10%29.86 "Hg10 mi
3:00 AM82 °FClear.No wind13%29.86 "Hg10 mi
2:00 AM84 °FClear.3 mph11%29.83 "Hg10 mi
1:00 AM84 °FClear.2 mph13%29.86 "Hg10 mi
12:00 AM86 °FClear.No wind11%29.86 "Hg10 mi
11:00 PM
Fri, Aug 26
88 °FClear.No wind10%29.86 "Hg10 mi
10:00 PM91 °FClear.3 mph10%29.86 "Hg10 mi
9:00 PM93 °FClear.6 mph8%29.86 "Hg10 mi
8:00 PM97 °FClear.6 mph8%29.83 "Hg10 mi
7:00 PM99 °FClear.5 mph8%29.83 "Hg10 mi
6:00 PM102 °FSunny.8 mph8%29.80 "Hg10 mi
Weather by CustomWeather, © 2016

See weather overviewHow to use our weather pages